DateTimeUTC,F1_A11,F1_S11,BsB_S11,BsG_S11,BsR_S11,BbsB_S11,BbsG_S11,BbsR_S11,BaB_A11,BaG_A11,BaR_A11,Tu_S11,T_S11,Uu_S11,U_S11,P_S11,T1_A11
2021-11-09T12:00:00Z,00000200,21000000,,,,,,,-000.04,-000.22,-000.30,18.6,25.6,,00.0,0639.8,31.0
2021-11-09T12:01:00Z,00000200,21000000,,,,,,,-000.01,0000.29,0000.28,18.6,25.6,,00.0,0639.8,31.0
2021-11-09T12:02:00Z,00000200,21000000,,,,,,,0000.04,-000.13,-000.11,18.6,25.6,,00.0,0639.8,31.0
2021-11-09T12:03:00Z,00000200,61000000,,,,,,,-000.17,0000.18,0000.04,18.6,25.6,,00.0,0639.8,31.0
2021-11-09T12:04:00Z,00000200,41000000,-000.80,0000.13,-000.17,0000.09,0000.07,-000.02,0000.43,-000.39,-000.07,19.0,25.5,,00.0,0640.7,31.0
2021-11-09T12:05:00Z,00000200,01000000,-000.46,0000.23,-000.07,-000.27,-000.09,0000.16,-000.17,0000.25,-000.26,19.0,25.5,,00.0,0640.8,31.0
2021-11-09T12:06:00Z,00000200,01000000,0000.07,0000.29,0000.36,-000.25,0000.02,0000.29,-000.62,-000.46,-000.18,18.9,25.5,,00.0,0640.7,31.0
2021-11-09T12:07:00Z,00000200,01000000,-000.27,0000.10,0000.38,-000.31,0000.03,0000.20,0000.44,0000.54,0000.55,18.9,25.4,,00.0,0640.7,31.0
2021-11-09T12:08:00Z,00000200,01000000,-000.04,0000.02,-000.16,0000.13,-000.19,0000.08,0000.07,-000.42,-000.30,18.8,25.4,,00.0,0640.7,30.9
2021-11-09T12:09:00Z,00000200,01000000,0000.41,0000.40,0000.11,0000.65,-000.01,-000.06,-000.09,0000.06,-000.01,18.7,25.3,,00.0,0640.7,30.9
2021-11-09T12:10:00Z,00000200,01000000,0000.49,-000.23,-000.29,-000.07,0000.20,-000.32,-000.21,-000.04,0000.25,18.6,25.3,,00.0,0640.7,30.9
2021-11-09T12:11:00Z,00000200,01000000,0000.21,0000.09,0000.08,-000.31,0000.14,0000.22,0000.44,0000.32,0000.23,18.6,25.3,,00.0,0640.7,30.9
2021-11-09T12:12:00Z,00000200,01000000,-000.14,-000.11,0000.13,0000.33,0000.02,-000.02,0000.21,0000.60,0000.10,18.7,25.3,,00.0,0640.7,30.9
2021-11-09T12:13:00Z,00000200,01000000,-000.09,0000.09,0000.22,-000.05,-000.13,-000.17,-000.08,-000.29,0000.12,18.7,25.3,,00.0,0640.8,30.9
2021-11-09T12:14:00Z,00000200,01000000,0000.30,0000.05,0000.36,-000.21,0000.41,-000.08,0000.02,-000.11,-000.38,18.8,25.3,,00.0,0640.7,31.0
2021-11-09T12:15:00Z,00000200,01000000,0000.11,0000.08,0000.13,-000.01,0000.11,0000.24,0000.20,0000.46,0000.19,18.8,25.3,,00.0,0640.7,31.0
2021-11-09T12:16:00Z,00000200,01000000,-000.38,0000.13,0000.23,-000.04,0000.13,0000.25,0000.03,-000.01,0000.13,18.8,25.4,,00.0,0640.7,31.0
2021-11-09T12:17:00Z,00000200,01000000,-000.11,0000.03,-000.27,0000.07,0000.32,-000.00,0000.29,0000.11,0000.16,18.9,25.4,,00.0,0640.7,31.0
2021-11-09T12:18:00Z,00000200,01000000,0001.87,0002.48,0002.76,0000.76,0000.39,0000.52,0009.80,0009.89,0009.65,18.9,25.4,,00.0,0640.6,31.0
2021-11-09T12:19:00Z,00000200,01000000,0000.62,0000.02,0000.20,0000.07,-000.08,0000.27,-000.25,-000.25,0000.23,18.8,25.4,,00.0,0640.5,30.9
2021-11-09T12:20:00Z,00000200,01000000,-000.47,-000.15,0000.16,-001.00,0000.19,0000.00,0000.22,0000.47,0000.13,18.7,25.3,,00.0,0640.5,30.9
2021-11-09T12:21:00Z,00000200,01000000,0001.07,0000.17,0000.19,-000.15,-000.07,0000.20,0000.01,-000.16,0000.40,18.6,25.3,,00.0,0640.5,30.9
2021-11-09T12:22:00Z,00000200,01000000,0000.57,0000.13,0000.13,0000.14,0000.14,0000.11,0000.07,0000.05,-000.39,18.5,25.2,,00.0,0640.5,30.9
2021-11-09T12:23:00Z,00000200,01000000,-000.81,0000.28,0000.31,-000.48,-000.04,0000.10,-000.01,0000.13,0000.38,18.4,25.1,,00.0,0640.4,30.9
2021-11-09T12:24:00Z,00000200,01000000,0000.53,0000.31,0000.04,0000.08,0000.07,0000.52,0000.00,0000.05,0000.25,18.4,25.1,,00.0,0640.4,30.9
2021-11-09T12:25:00Z,00000200,01000000,0000.13,0000.19,-000.04,0000.65,0000.28,0000.09,0000.43,0000.47,0000.10,18.3,25.1,,00.0,0640.5,30.9
2021-11-09T12:26:00Z,00000200,01000000,0000.28,-000.06,0000.17,-000.57,-000.06,0000.60,0000.08,0000.22,-000.10,18.4,25.1,,00.0,0640.5,30.9
2021-11-09T12:27:00Z,00000200,01000000,-000.36,-000.05,0000.11,-000.43,-000.14,0000.12,-000.08,-000.16,0000.26,18.4,25.1,,00.0,0640.5,30.9
2021-11-09T12:28:00Z,00000200,01000000,0001.10,0000.02,0000.07,-000.03,0000.08,0000.25,0000.16,0000.11,-000.27,18.4,25.1,,00.0,0640.5,30.9
2021-11-09T12:29:00Z,00000200,01000000,0000.18,0000.33,-000.24,-000.03,-000.01,0000.29,0000.36,0000.14,0000.33,18.5,25.1,,00.0,0640.5,31.0
2021-11-09T12:30:00Z,00000200,01000000,-000.22,0000.04,0000.24,0000.10,-000.31,0000.26,-000.13,-000.26,0000.38,18.6,25.2,,00.0,0640.5,31.0
2021-11-09T12:31:00Z,00000200,01000000,0000.65,0000.07,0000.48,-000.43,0000.00,0000.10,0000.21,0000.54,-000.14,18.7,25.2,,00.0,0640.5,31.0
2021-11-09T12:32:00Z,00000200,01000000,-000.48,0000.37,-000.03,0000.16,0000.25,0000.08,0000.25,-000.13,0000.02,18.8,25.2,,00.0,0640.5,31.0
2021-11-09T12:33:00Z,00000200,01000000,0000.79,-000.23,-000.08,-000.02,0000.10,0000.26,-000.30,-000.02,0000.07,18.8,25.3,,00.0,0640.4,31.0
2021-11-09T12:34:00Z,00000200,01000000,0000.41,-000.06,-000.13,0000.02,0000.24,0000.00,0000.37,0000.29,0000.21,18.9,25.3,,00.0,0640.4,31.0
2021-11-09T12:35:00Z,00000200,01000000,-000.37,0000.26,-000.13,-000.08,-000.09,0000.26,-000.29,0000.15,0000.22,18.8,25.3,,00.0,0640.4,31.0
2021-11-09T12:36:00Z,00000200,01000000,0001.09,0000.18,0000.13,0000.46,0000.05,-000.07,0000.23,0000.01,-000.22,18.8,25.3,,00.0,0640.4,31.0
2021-11-09T12:37:00Z,00000200,01000000,-000.08,-000.08,0000.22,-000.02,-000.05,0000.38,0000.05,0000.07,-000.03,18.8,25.3,,00.0,0640.4,30.9
2021-11-09T12:38:00Z,00000200,01000000,-000.24,-000.12,-000.16,-000.43,0000.05,0000.28,-000.31,-000.55,-000.23,18.7,25.2,,00.0,0640.4,30.9
2021-11-09T12:39:00Z,00000200,01000000,0000.70,-000.04,-000.04,0000.05,0000.20,-000.17,0000.67,0000.62,0000.49,18.6,25.1,,00.0,0640.4,30.9
2021-11-09T12:40:00Z,00000200,01000000,-000.69,-000.00,-000.07,-000.28,0000.21,0000.25,0000.18,0000.09,0000.14,18.5,25.1,,00.0,0640.3,30.9
2021-11-09T12:41:00Z,00000200,01000000,0000.15,0000.26,-000.25,-000.26,-000.05,0000.15,-000.17,0000.58,0000.12,18.5,25.1,,00.0,0640.3,30.9
2021-11-09T12:42:00Z,00000200,01000000,0000.20,0000.27,-000.04,0000.31,-000.15,0000.12,0000.24,-000.49,-000.05,18.6,25.1,,00.0,0640.3,30.9
2021-11-09T12:43:00Z,00000200,01000000,0000.56,0000.29,-000.02,0000.06,-000.14,0000.19,0000.40,0000.42,0000.01,18.6,25.2,,00.0,0640.3,30.9
2021-11-09T12:44:00Z,00000200,01000000,-000.02,-000.00,0000.32,-000.23,-000.29,0000.40,-000.20,-000.13,0000.34,18.7,25.2,,00.0,0640.3,31.0
2021-11-09T12:45:00Z,00000200,01000000,0000.67,0000.08,0000.10,0000.39,0000.25,0000.12,0000.24,0000.67,0000.11,18.8,25.2,,00.0,0640.3,31.0
2021-11-09T12:46:00Z,00000200,01000000,0000.35,0000.01,-000.11,-000.64,-000.14,0000.37,0000.03,0000.03,0000.34,18.8,25.2,,00.0,0640.3,31.0
2021-11-09T12:47:00Z,00000200,01000000,0000.00,0000.13,-000.18,-000.53,-000.02,-000.10,0000.12,-000.21,0000.22,18.9,25.2,,00.0,0640.3,31.0
2021-11-09T12:48:00Z,00000200,01000000,-000.73,0000.16,0000.03,-000.27,0000.02,-000.05,0000.04,0000.06,-000.21,18.9,25.3,,00.0,0640.4,31.0
2021-11-09T12:49:00Z,00000200,01000000,0000.29,0000.02,0000.02,-000.58,-000.26,0000.62,0000.20,0000.28,0000.26,19.0,25.3,,00.0,0640.4,31.0
2021-11-09T12:50:00Z,00000200,01000000,0000.51,0000.29,-000.03,-000.33,-000.19,0000.26,0000.02,-000.09,-000.25,19.0,25.3,,00.0,0640.4,31.0
2021-11-09T12:51:00Z,00000200,01000000,-000.19,0000.01,-000.20,0000.37,0000.13,0000.38,-000.33,-000.09,-000.06,19.1,25.3,,00.0,0640.4,31.0
2021-11-09T12:52:00Z,00000200,01000000,-000.49,0000.12,-000.35,-001.00,0000.17,-000.10,0000.30,0000.02,0000.11,19.0,25.3,,00.0,0640.4,31.0
2021-11-09T12:53:00Z,00000200,01000000,0000.69,0000.24,0000.14,-000.51,0000.21,0000.04,0000.06,0000.28,0000.11,19.0,25.3,,00.0,0640.4,31.0
2021-11-09T12:54:00Z,00000200,01000000,-000.39,0000.20,0000.05,-000.45,-000.12,-000.05,0000.12,-000.06,0000.20,18.9,25.3,,00.0,0640.4,30.9
2021-11-09T12:55:00Z,00000200,01000000,-000.30,0000.02,0000.08,0000.28,-000.27,0000.03,-000.03,0000.05,-000.08,18.8,25.2,,00.0,0640.4,30.9
2021-11-09T12:56:00Z,00000200,01000000,-000.20,-000.08,0000.20,0000.07,-000.02,0000.23,0000.22,-000.20,-000.01,18.8,25.2,,00.0,0640.4,31.0
2021-11-09T12:57:00Z,00000200,41000000,,,,,,,-000.50,-000.22,-000.47,18.9,25.3,,00.0,0640.4,31.0
2021-11-09T12:58:00Z,00000200,61000000,,,,,,,0000.46,0000.45,0000.48,18.6,25.4,,00.0,0639.5,31.0
2021-11-09T12:59:00Z,00000200,21000000,,,,,,,-000.06,0000.11,0000.01,18.7,25.5,,00.0,0639.5,31.0
